Tracking 35275 objects as of 8-Sep-2026
HD Live streaming from Space Station
objects crossing your sky now

COSMOS 1123 DEB


COSMOS 1123 DEB is no longer on orbit


NORAD ID: 11517
Int'l Code: 1979-076C
Launch date: August 21, 1979
Source: Commonwealth of Independent States (former USSR) (CIS)
Launch site: PLESETSK MISSILE AND SPACE COMPLEX (PKMTR)
Decay date: 1979-09-06

Note: This is SATELLITE DEBRIS
Your satellite tracking list
Your tracking list is empty




NASA's NSSDC Master Catalog

Two Line Element Set (TLE):
1 11517U 79076  C 79249.97281850  .09114433 +07516-6 +04806-5 0  9998
2 11517 081.3366 139.1096 0009982 321.3506 037.4542 16.57965660002683
Source of the keplerian elements: AFSPC